FIN4CE EGLL-EFHK

Flight info

Callsign FIN4CE
Flight time N/A
Altitude 41000
Route BPK Q295 PAAVO M604 GIVPO DCT LARGA DCT SOPTO DCT LOBBI DCT PELUP DCT ALAMI DCT OKEVU DCT EVADI Y370 DIVAM
Aircraft A359/H-SDE2E3GHIJ3J4J5LM1ORWXY/LB1D1

Departure

Time N/A
Airport London Heathrow Airport (EGLL)

Arrival

Time 2026-05-04 21:25
Airport Helsinki Vantaa Airport (EFHK)
Time Latitude Longitude Altitude Speed Heading
2026-05-04 20:08 57.37032 11.73151 40916 ft 524 kts 68°
2026-05-04 20:09 57.38324 11.79468 40923 ft 524 kts 68°
2026-05-04 20:09 57.40956 11.92092 40905 ft 526 kts 67°
2026-05-04 20:10 57.43620 12.04661 40900 ft 526 kts 67°
2026-05-04 20:10 57.46301 12.17301 40895 ft 526 kts 67°
2026-05-04 20:11 57.48970 12.29964 40898 ft 526 kts 67°
2026-05-04 20:11 57.51620 12.42626 40897 ft 526 kts 67°
2026-05-04 20:12 57.54259 12.55322 40896 ft 526 kts 68°
2026-05-04 20:12 57.56883 12.68032 40919 ft 526 kts 68°
2026-05-04 20:13 57.59502 12.80792 40891 ft 528 kts 68°
2026-05-04 20:13 57.62116 12.93611 40882 ft 529 kts 68°
2026-05-04 20:14 57.64719 13.06459 40882 ft 529 kts 68°
2026-05-04 20:14 57.67309 13.19324 40878 ft 529 kts 68°
2026-05-04 20:15 57.69884 13.32200 40871 ft 529 kts 68°
2026-05-04 20:15 57.72435 13.45033 40874 ft 529 kts 68°
2026-05-04 20:16 57.74985 13.57953 40895 ft 528 kts 68°
2026-05-04 20:16 57.77524 13.70896 40860 ft 530 kts 68°
2026-05-04 20:17 57.80056 13.83894 40858 ft 531 kts 69°
2026-05-04 20:17 57.82574 13.96902 40848 ft 531 kts 69°
2026-05-04 20:18 57.85078 14.09928 40829 ft 531 kts 69°
2026-05-04 20:18 57.87570 14.22978 40831 ft 530 kts 69°
2026-05-04 20:19 57.90042 14.36012 40831 ft 529 kts 69°
2026-05-04 20:19 57.92483 14.48975 40833 ft 529 kts 69°
2026-05-04 20:20 57.94929 14.62045 40840 ft 529 kts 69°
2026-05-04 20:20 57.97362 14.75135 40829 ft 529 kts 69°
2026-05-04 20:21 57.99779 14.88231 40822 ft 529 kts 69°
2026-05-04 20:21 58.03383 15.07932 40822 ft 529 kts 70°
2026-05-04 20:22 58.05765 15.21070 40830 ft 529 kts 70°
2026-05-04 20:22 58.08123 15.34160 40830 ft 529 kts 70°
2026-05-04 20:23 58.10480 15.47337 40824 ft 529 kts 70°
2026-05-04 20:23 58.12825 15.60548 40818 ft 530 kts 70°
2026-05-04 20:24 58.15160 15.73789 40815 ft 530 kts 70°
2026-05-04 20:24 58.17486 15.87077 40810 ft 530 kts 70°
2026-05-04 20:25 58.19792 16.00351 40803 ft 530 kts 70°
2026-05-04 20:25 58.22087 16.13653 40804 ft 530 kts 71°
2026-05-04 20:26 58.24354 16.26895 40783 ft 530 kts 71°
2026-05-04 20:26 58.26618 16.40211 40823 ft 530 kts 71°
2026-05-04 20:27 58.28901 16.53541 40797 ft 531 kts 69°
2026-05-04 20:27 58.31446 16.66708 40790 ft 531 kts 68°
2026-05-04 20:28 58.34049 16.79851 40789 ft 531 kts 68°
2026-05-04 20:28 58.36608 16.93058 40783 ft 531 kts 69°
2026-05-04 20:29 58.39106 17.06207 40775 ft 531 kts 69°
2026-05-04 20:29 58.41595 17.19449 40784 ft 530 kts 69°
2026-05-04 20:30 58.44005 17.32353 40791 ft 530 kts 69°
2026-05-04 20:30 58.46324 17.44848 40778 ft 531 kts 69°
2026-05-04 20:31 58.48747 17.57985 40776 ft 531 kts 70°
2026-05-04 20:31 58.51184 17.71285 40769 ft 531 kts 70°
2026-05-04 20:32 58.53594 17.84535 40767 ft 531 kts 70°
2026-05-04 20:32 58.56008 17.97902 40770 ft 530 kts 70°
2026-05-04 20:33 58.58395 18.11216 40763 ft 530 kts 70°
2026-05-04 20:33 58.60778 18.24601 40772 ft 530 kts 70°
2026-05-04 20:34 58.63149 18.38017 40760 ft 532 kts 70°
2026-05-04 20:34 58.65513 18.51486 40761 ft 532 kts 70°
2026-05-04 20:35 58.67861 18.64965 40757 ft 532 kts 71°
2026-05-04 20:35 58.70192 18.78451 40754 ft 532 kts 71°
2026-05-04 20:36 58.72512 18.91964 40752 ft 532 kts 71°
2026-05-04 20:36 58.74803 19.05414 40754 ft 532 kts 71°
2026-05-04 20:37 58.77097 19.18983 40748 ft 532 kts 71°
2026-05-04 20:37 58.79382 19.32594 40745 ft 533 kts 71°
2026-05-04 20:38 58.81651 19.46216 40741 ft 533 kts 72°
2026-05-04 20:38 58.83903 19.59847 40743 ft 533 kts 72°
2026-05-04 20:39 58.86141 19.73491 40743 ft 533 kts 72°
2026-05-04 20:39 58.88351 19.87071 40735 ft 533 kts 72°
2026-05-04 20:40 58.90564 20.00772 40740 ft 533 kts 72°
2026-05-04 20:40 58.92761 20.14485 40738 ft 534 kts 72°
2026-05-04 20:41 58.94950 20.28252 40732 ft 534 kts 72°
2026-05-04 20:41 58.97122 20.42027 40733 ft 535 kts 72°
2026-05-04 20:42 58.99280 20.55820 40741 ft 534 kts 73°
2026-05-04 20:42 59.01424 20.69637 40733 ft 534 kts 73°
2026-05-04 20:43 59.03537 20.83366 40715 ft 534 kts 73°
2026-05-04 20:43 59.06457 20.96610 40747 ft 533 kts 59°
2026-05-04 20:44 59.10219 21.09060 40730 ft 534 kts 57°
2026-05-04 20:44 59.14110 21.21368 40438 ft 534 kts 57°
2026-05-04 20:45 59.16058 21.27530 40197 ft 534 kts 57°
2026-05-04 20:45 59.18000 21.33712 39973 ft 535 kts 57°
2026-05-04 20:45 59.19911 21.39837 39736 ft 535 kts 57°
2026-05-04 20:45 59.21838 21.46044 39504 ft 535 kts 57°
2026-05-04 20:46 59.23765 21.52278 39272 ft 536 kts 57°
2026-05-04 20:46 59.25693 21.58526 39082 ft 536 kts 57°
2026-05-04 20:46 59.27603 21.64749 38637 ft 533 kts 57°
2026-05-04 20:46 59.29510 21.70988 37930 ft 533 kts 57°
2026-05-04 20:47 59.31406 21.77211 37216 ft 531 kts 57°
2026-05-04 20:47 59.33293 21.83419 36574 ft 530 kts 57°
2026-05-04 20:47 59.35179 21.89626 35883 ft 529 kts 56°
2026-05-04 20:47 59.37060 21.95824 35187 ft 529 kts 56°
2026-05-04 20:48 59.38940 22.02037 34397 ft 531 kts 56°
2026-05-04 20:48 59.40808 22.08229 33570 ft 534 kts 55°
2026-05-04 20:48 59.42700 22.14516 32655 ft 535 kts 56°
2026-05-04 20:48 59.44592 22.20820 31828 ft 536 kts 56°
2026-05-04 20:49 59.46487 22.27152 30949 ft 538 kts 56°
2026-05-04 20:49 59.48375 22.33482 30369 ft 534 kts 56°
2026-05-04 20:49 59.50243 22.39765 29756 ft 530 kts 56°
2026-05-04 20:49 59.52095 22.46007 29093 ft 526 kts 56°
2026-05-04 20:50 59.53929 22.52200 28461 ft 521 kts 56°
2026-05-04 20:50 59.55745 22.58368 27868 ft 516 kts 56°
2026-05-04 20:50 59.57537 22.64477 27271 ft 512 kts 56°
2026-05-04 20:50 59.59307 22.70525 26664 ft 507 kts 56°
2026-05-04 20:51 59.61063 22.76538 26072 ft 503 kts 56°
2026-05-04 20:51 59.62802 22.82506 25498 ft 498 kts 56°
2026-05-04 20:51 59.64520 22.88415 24918 ft 494 kts 56°
2026-05-04 20:51 59.66205 22.94225 24344 ft 491 kts 56°
2026-05-04 20:52 59.67895 23.00061 23752 ft 487 kts 56°
2026-05-04 20:52 59.69573 23.05863 23148 ft 484 kts 56°
2026-05-04 20:52 59.71237 23.11632 22513 ft 479 kts 57°
2026-05-04 20:52 59.72878 23.17338 21928 ft 474 kts 57°
2026-05-04 20:53 59.74502 23.23000 21345 ft 469 kts 57°
2026-05-04 20:53 59.76103 23.28592 20757 ft 464 kts 57°
2026-05-04 20:53 59.77688 23.34140 20173 ft 460 kts 57°
2026-05-04 20:53 59.79257 23.39648 19591 ft 456 kts 58°
2026-05-04 20:54 59.80812 23.45115 19050 ft 452 kts 58°
2026-05-04 20:54 59.82327 23.50464 18939 ft 437 kts 58°
2026-05-04 20:54 59.83304 23.53920 18846 ft 427 kts 58°
2026-05-04 20:54 59.84737 23.58996 18683 ft 415 kts 58°
2026-05-04 20:55 59.86130 23.63929 18499 ft 403 kts 58°
2026-05-04 20:55 59.87480 23.68736 18332 ft 392 kts 58°
2026-05-04 20:55 59.88794 23.73430 18051 ft 385 kts 58°
2026-05-04 20:55 59.90096 23.78084 17598 ft 382 kts 58°
2026-05-04 20:56 59.91342 23.82727 17172 ft 379 kts 62°
2026-05-04 20:56 59.92416 23.87499 16838 ft 374 kts 65°
2026-05-04 20:56 59.93413 23.92185 16488 ft 369 kts 66°
2026-05-04 20:56 59.94405 23.96880 16132 ft 365 kts 66°
2026-05-04 20:57 59.95385 24.01518 15776 ft 361 kts 66°
2026-05-04 20:57 59.96356 24.06118 15414 ft 357 kts 66°
2026-05-04 20:57 59.97314 24.10659 15072 ft 353 kts 66°
2026-05-04 20:57 59.98263 24.15160 14722 ft 349 kts 66°
2026-05-04 20:58 59.99200 24.19612 14393 ft 346 kts 66°
2026-05-04 20:58 60.00124 24.24013 14070 ft 343 kts 66°
2026-05-04 20:58 60.01044 24.28401 13722 ft 340 kts 66°
2026-05-04 20:58 60.01955 24.32757 13373 ft 337 kts 66°
2026-05-04 20:59 60.02719 24.36423 13076 ft 333 kts 66°
2026-05-04 20:59 60.03606 24.40682 12746 ft 329 kts 66°
2026-05-04 20:59 60.04466 24.44819 12427 ft 325 kts 66°
2026-05-04 20:59 60.05329 24.48977 12110 ft 322 kts 66°
2026-05-04 21:00 60.06183 24.53101 11790 ft 319 kts 66°
2026-05-04 21:00 60.07029 24.57192 11486 ft 317 kts 66°
2026-05-04 21:00 60.07865 24.61250 11176 ft 314 kts 66°
2026-05-04 21:00 60.08696 24.65283 10852 ft 312 kts 66°
2026-05-04 21:01 60.09518 24.69287 10539 ft 310 kts 66°
2026-05-04 21:01 60.10516 24.73072 10247 ft 305 kts 51°
2026-05-04 21:01 60.11871 24.76317 9954 ft 301 kts 44°
2026-05-04 21:01 60.13288 24.79381 9652 ft 299 kts 43°
2026-05-04 21:02 60.14733 24.82476 9382 ft 311 kts 43°
2026-05-04 21:02 60.16224 24.85693 9312 ft 315 kts 43°
2026-05-04 21:02 60.17690 24.88887 8852 ft 307 kts 44°
2026-05-04 21:02 60.19132 24.92040 8404 ft 307 kts 43°
2026-05-04 21:03 60.20575 24.95198 8072 ft 306 kts 44°
2026-05-04 21:03 60.21818 24.97923 7867 ft 307 kts 44°
2026-05-04 21:03 60.23232 25.01032 7522 ft 303 kts 44°
2026-05-04 21:03 60.24643 25.04139 7209 ft 300 kts 44°
2026-05-04 21:04 60.26046 25.07230 6890 ft 298 kts 44°
2026-05-04 21:04 60.27438 25.10302 6598 ft 295 kts 44°
2026-05-04 21:04 60.28812 25.13343 6254 ft 291 kts 44°
2026-05-04 21:04 60.30167 25.16343 5897 ft 287 kts 44°
2026-05-04 21:05 60.31503 25.19303 5534 ft 284 kts 44°
2026-05-04 21:05 60.32817 25.22212 5305 ft 276 kts 44°
2026-05-04 21:05 60.34087 25.25038 5102 ft 267 kts 44°
2026-05-04 21:05 60.35312 25.27771 4917 ft 260 kts 44°
2026-05-04 21:06 60.36515 25.30455 4711 ft 254 kts 44°
2026-05-04 21:06 60.37704 25.33095 4488 ft 253 kts 43°
2026-05-04 21:06 60.38887 25.35727 4295 ft 253 kts 44°
2026-05-04 21:06 60.40077 25.38356 4105 ft 252 kts 41°
2026-05-04 21:07 60.41448 25.40393 3898 ft 238 kts 20°
2026-05-04 21:07 60.42983 25.41130 3678 ft 219 kts 352°
2026-05-04 21:07 60.44374 25.40386 3484 ft 198 kts 322°
2026-05-04 21:07 60.45146 25.38349 3315 ft 177 kts 287°
2026-05-04 21:08 60.45439 25.36001 3135 ft 168 kts 279°
2026-05-04 21:08 60.45647 25.33756 3021 ft 160 kts 278°
2026-05-04 21:08 60.45843 25.31661 3002 ft 145 kts 278°
2026-05-04 21:08 60.46034 25.29683 2999 ft 142 kts 279°
2026-05-04 21:09 60.46049 25.27703 2993 ft 143 kts 257°
2026-05-04 21:09 60.45599 25.25902 2992 ft 145 kts 239°
2026-05-04 21:09 60.44962 25.24311 2992 ft 146 kts 234°
2026-05-04 21:09 60.44292 25.22770 2992 ft 146 kts 234°
2026-05-04 21:10 60.43610 25.21249 2991 ft 146 kts 233°
2026-05-04 21:10 60.42925 25.19729 2977 ft 146 kts 233°
2026-05-04 21:10 60.42238 25.18196 2904 ft 146 kts 233°
2026-05-04 21:10 60.41558 25.16681 2709 ft 145 kts 233°
2026-05-04 21:11 60.40882 25.15183 2502 ft 144 kts 232°
2026-05-04 21:11 60.40208 25.13692 2318 ft 143 kts 232°
2026-05-04 21:11 60.39540 25.12212 2116 ft 142 kts 232°
2026-05-04 21:11 60.38878 25.10747 1917 ft 141 kts 232°
2026-05-04 21:12 60.38222 25.09296 1733 ft 136 kts 232°
2026-05-04 21:12 60.37619 25.07967 1548 ft 121 kts 233°
2026-05-04 21:12 60.37071 25.06757 1395 ft 114 kts 233°
2026-05-04 21:12 60.36537 25.05571 1229 ft 114 kts 233°
2026-05-04 21:13 60.36003 25.04386 1074 ft 115 kts 230°
2026-05-04 21:13 60.35465 25.03170 884 ft 118 kts 231°
2026-05-04 21:13 60.34916 25.01955 727 ft 119 kts 229°
2026-05-04 21:13 60.34345 25.00734 577 ft 121 kts 229°
2026-05-04 21:14 60.33773 24.99443 405 ft 125 kts 226°
2026-05-04 21:14 60.33183 24.98144 268 ft 127 kts 232°
2026-05-04 21:14 60.32600 24.96867 220 ft 119 kts 228°
2026-05-04 21:14 60.31971 24.95435 642 ft 160 kts 229°
2026-05-04 21:15 60.31128 24.93536 1208 ft 197 kts 229°
2026-05-04 21:15 60.30113 24.91402 1721 ft 224 kts 224°
2026-05-04 21:15 60.28671 24.90095 2442 ft 227 kts 198°
2026-05-04 21:15 60.27115 24.89869 2870 ft 228 kts 177°
2026-05-04 21:16 60.25638 24.91180 2992 ft 241 kts 146°
2026-05-04 21:16 60.24624 24.93902 2997 ft 250 kts 115°
2026-05-04 21:16 60.24378 24.97372 2994 ft 254 kts 83°
2026-05-04 21:16 60.24960 25.00680 2998 ft 252 kts 57°
2026-05-04 21:17 60.25939 25.03598 2995 ft 251 kts 51°
2026-05-04 21:17 60.26959 25.06400 2994 ft 251 kts 50°
2026-05-04 21:17 60.27993 25.09234 2994 ft 251 kts 50°
2026-05-04 21:17 60.29030 25.12063 2993 ft 251 kts 50°
2026-05-04 21:18 60.30067 25.14889 2878 ft 250 kts 50°
2026-05-04 21:18 60.31098 25.17712 2765 ft 251 kts 50°
2026-05-04 21:18 60.32133 25.20547 2626 ft 249 kts 50°
2026-05-04 21:18 60.33143 25.23309 2489 ft 240 kts 50°
2026-05-04 21:19 60.34123 25.25961 2351 ft 231 kts 48°
2026-05-04 21:19 60.35327 25.27892 2222 ft 214 kts 17°
2026-05-04 21:19 60.36684 25.28171 2114 ft 184 kts 340°
2026-05-04 21:19 60.37783 25.27220 1999 ft 163 kts 322°
2026-05-04 21:20 60.38718 25.26106 1986 ft 152 kts 321°
2026-05-04 21:20 60.39623 25.24997 1991 ft 152 kts 320°
2026-05-04 21:20 60.40444 25.23730 1992 ft 145 kts 302°
2026-05-04 21:20 60.40864 25.21931 1995 ft 141 kts 284°
2026-05-04 21:21 60.41120 25.20028 1993 ft 140 kts 281°
2026-05-04 21:21 60.41349 25.18109 1992 ft 140 kts 280°
2026-05-04 21:21 60.41249 25.16171 2000 ft 140 kts 251°
2026-05-04 21:21 60.40711 25.14660 1976 ft 125 kts 229°
2026-05-04 21:22 60.40105 25.13509 1980 ft 116 kts 230°
2026-05-04 21:22 60.39565 25.12301 1994 ft 116 kts 235°
2026-05-04 21:22 60.39025 25.11074 1942 ft 118 kts 233°
2026-05-04 21:22 60.38473 25.09850 1790 ft 117 kts 233°
2026-05-04 21:23 60.37933 25.08657 1643 ft 116 kts 233°
2026-05-04 21:23 60.37474 25.07642 1499 ft 116 kts 233°
2026-05-04 21:23 60.36930 25.06439 1349 ft 116 kts 233°
2026-05-04 21:23 60.36390 25.05244 1180 ft 115 kts 233°
2026-05-04 21:24 60.35864 25.04032 998 ft 115 kts 232°
2026-05-04 21:24 60.35320 25.02834 874 ft 118 kts 227°
2026-05-04 21:24 60.34746 25.01611 723 ft 122 kts 230°
2026-05-04 21:24 60.34182 25.00343 509 ft 121 kts 227°
2026-05-04 21:25 60.33605 24.99085 367 ft 123 kts 227°
2026-05-04 21:25 60.33024 24.97811 209 ft 123 kts 227°
2026-05-04 21:25 60.32483 24.96612 181 ft 102 kts 227°
2026-05-04 21:25 60.32172 24.95935 183 ft 37 kts 226°
2026-05-04 21:26 60.32003 24.95691 179 ft 26 kts 204°
2026-05-04 21:26 60.31895 24.95615 177 ft 12 kts 197°
2026-05-04 21:26 60.31805 24.95625 177 ft 16 kts 169°
2026-05-04 21:26 60.31723 24.95510 177 ft 15 kts 228°
2026-05-04 21:27 60.31646 24.95337 176 ft 18 kts 228°
2026-05-04 21:27 60.31556 24.95138 176 ft 20 kts 228°
2026-05-04 21:27 60.31445 24.95001 174 ft 17 kts 154°
2026-05-04 21:27 60.31346 24.95181 173 ft 21 kts 138°
2026-05-04 21:28 60.31232 24.95394 172 ft 24 kts 137°
2026-05-04 21:28 60.31181 24.95627 173 ft 19 kts 60°
2026-05-04 21:28 60.31253 24.95796 173 ft 16 kts 49°
2026-05-04 21:28 60.31324 24.95956 173 ft 11 kts 47°
2026-05-04 21:29 60.31361 24.96061 173 ft 4 kts 86°
2026-05-04 21:29 60.31357 24.96154 173 ft 5 kts 82°
2026-05-04 21:29 60.31383 24.96222 173 ft 8 kts 47°
2026-05-04 21:29 60.31395 24.96246 173 ft 0 kts 47°